Change the Weather History Date:

Saturday, February 23, 2013

  Actual Average Record
Temperature  
Mean Temperature 52 °F 54 °F  
Max Temperature 59 °F 63 °F 85 °F (1954)
Min Temperature 44 °F 44 °F 33 °F (1997)
Degree Days  
Heating Degree Days 13 11  
Month to date heating degree days 335 281  
Since 1 July heating degree days 1685 1759  
Cooling Degree Days 0 0  
Month to date cooling degree days 0 0  
Year to date cooling degree days 0 0  
Growing Degree Days 2 (Base 50)    
Moisture  
Dew Point 43 °F    
Average Humidity 72    
Maximum Humidity 93    
Minimum Humidity 51    
Precipitation  
Precipitation 0.00 in 0.08 in 0.58 in (2010)
Month to date precipitation 0.56 2.05  
Year to date precipitation 1.60 4.65  
Since 1 July precipitation 8.24  
Sea Level Pressure  
Sea Level Pressure 30.23 in    
Wind  
Wind Speed 9 mph (West)    
Max Wind Speed 21 mph    
Max Gust Speed 26 mph    
Visibility 9 miles    
Events      
T = Trace of Precipitation, MM = Missing Value Source: NWS Daily Summary

Daily Weather History Graph

Daily Weather History Graph

Search for Another Location

Airport or City:

Trip Planner

Search our weather history database for the weather conditions in past years. The results will help you decide how hot, cold, wet, or windy it might be!

Date:

Astronomy

Feb. 23, 2013 Rise Set
Actual Time 6:44 AM PST 5:55 PM PST
Civil Twilight 6:18 AM PST 6:21 PM PST
Nautical Twilight 5:48 AM PST 6:51 PM PST
Astronomical Twilight 5:18 AM PST 7:21 PM PST
Moon 4:12 PM PST (2/23) 5:08 AM PST (2/23)
Length of Visible Light 12h 03m
Length of Day
11h 10m
Waxing Gibbous, 96% of the Moon is Illuminated
Feb 23
Waxing Gibbous
Feb 25
Full
Mar 4
Last Quarter
Mar 11
New
Mar 19
First Quarter

Hourly Weather History & Observations

Time (PST) Temp. Windchill Dew Point Humidity Pressure Visibility Wind Dir Wind Speed Gust Speed Precip Events Conditions
12:45 AM 48.2 °F - 44.6 °F 87% 30.27 in 9.0 mi West 5.8 mph - N/A   Overcast
12:53 AM 48.9 °F - 45.0 °F 86% 30.30 in 9.0 mi West 4.6 mph - N/A   Overcast
1:53 AM 50.0 °F - 44.1 °F 80% 30.28 in 10.0 mi SSW 5.8 mph - N/A   Overcast
2:53 AM 48.9 °F - 43.0 °F 80% 30.26 in 10.0 mi WSW 4.6 mph - N/A   Mostly Cloudy
3:10 AM 48.2 °F - 42.8 °F 82% 30.23 in 10.0 mi WSW 6.9 mph - N/A   Mostly Cloudy
4:53 AM 48.9 °F - 43.0 °F 80% 30.25 in 10.0 mi SW 3.5 mph - N/A   Overcast
5:53 AM 48.9 °F - 45.0 °F 86% 30.25 in 9.0 mi NNW 3.5 mph - N/A   Overcast
6:53 AM 48.9 °F - 45.0 °F 86% 30.25 in 5.0 mi West 3.5 mph - N/A   Overcast
7:08 AM 48.2 °F - 46.4 °F 93% 30.23 in 3.0 mi WNW 3.5 mph - N/A   Overcast
7:53 AM 48.9 °F - 46.9 °F 93% 30.27 in 4.0 mi WNW 5.8 mph - N/A   Overcast
8:31 AM 50.0 °F - 46.4 °F 87% 30.25 in 10.0 mi WNW 8.1 mph - N/A   Mostly Cloudy
8:39 AM 51.8 °F - 46.4 °F 82% 30.24 in 10.0 mi West 8.1 mph - N/A   Mostly Cloudy
8:44 AM 51.8 °F - 46.4 °F 82% 30.25 in 10.0 mi WNW 9.2 mph - N/A   Overcast
8:53 AM 50.0 °F - 46.0 °F 86% 30.28 in 10.0 mi West 8.1 mph - N/A   Mostly Cloudy
9:02 AM 51.8 °F - 44.6 °F 76% 30.25 in 10.0 mi West 9.2 mph - N/A   Overcast
9:11 AM 51.8 °F - 42.8 °F 71% 30.25 in 10.0 mi WNW 9.2 mph - N/A   Overcast
9:35 AM 51.8 °F - 41.0 °F 67% 30.25 in 10.0 mi West 9.2 mph - N/A   Scattered Clouds
10:53 AM 54.0 °F - 41.0 °F 62% 30.26 in 10.0 mi West 4.6 mph - N/A   Mostly Cloudy
11:53 AM 55.9 °F - 41.0 °F 57% 30.24 in 10.0 mi SW 11.5 mph - N/A   Mostly Cloudy
12:53 PM 57.0 °F - 39.9 °F 53% 30.21 in 10.0 mi West 15.0 mph - N/A   Clear
1:53 PM 57.0 °F - 39.9 °F 53% 30.19 in 10.0 mi WSW 16.1 mph - N/A   Clear
2:53 PM 57.9 °F - 39.9 °F 51% 30.18 in 10.0 mi WSW 15.0 mph 23.0 mph N/A   Clear
3:53 PM 57.0 °F - 39.9 °F 53% 30.17 in 9.0 mi West 17.3 mph 24.2 mph N/A   Clear
4:53 PM 55.0 °F - 39.9 °F 57% 30.16 in 9.0 mi West 15.0 mph 21.9 mph N/A   Clear
5:53 PM 52.0 °F - 39.9 °F 63% 30.17 in 9.0 mi West 15.0 mph - N/A   Clear
6:53 PM 50.0 °F - 41.0 °F 71% 30.20 in 9.0 mi WSW 10.4 mph - N/A   Clear
7:53 PM 50.0 °F - 41.0 °F 71% 30.22 in 9.0 mi WSW 8.1 mph - N/A   Clear
8:53 PM 48.9 °F - 39.9 °F 71% 30.22 in 10.0 mi WSW 6.9 mph - N/A   Clear
9:53 PM 46.0 °F 41.9 °F 39.0 °F 76% 30.23 in 9.0 mi WSW 8.1 mph - N/A   Clear
10:53 PM 46.0 °F 43.1 °F 39.0 °F 76% 30.23 in 9.0 mi WSW 5.8 mph - N/A   Clear
11:53 PM 44.1 °F 39.5 °F 37.0 °F 76% 30.22 in 10.0 mi WSW 8.1 mph - N/A   Clear